Погода в Бари

Италия     41°07′33″N   16°52′07″E
темп.,
°C
ветер,
м/с
пор.,
м/с
влажн.,
%
обл.,
%
осадки,
мм/ч
давл.,
гПа
погр.,
м
14 апреля, ср
ср1423:00+12сз568182 0.7 1019555
02:00+10зсз91084100 2.3 1019928
05:00+10зсз81069100 0.6 10201190
08:00+9зсз10116529 0.7 10211350
11:00+11сз11125617 0.0 10211542
14:00+11ссз1113554 0.0 10211371
17:00+11ссз11125818 0.0 10201159
20:00+11сз91056100 0.0 10211218
15 апреля, чт
чт1523:00+10зсз89585 0.0 1021975
02:00+9зсз89685 0.0 1020556
05:00+8зсз78715 0.0 1020423
08:00+9зсз78672 0.0 1020410
11:00+11зсз66593 0.0 1021821
14:00+12с55534 0.0 1020957
17:00+12ссв66524 0.0 1019807
20:00+12ссв3350100 0.0 1019640
16 апреля, пт
пт1623:00+11с2250100 0.0 1019532
02:00+11ссз3456100 0.0 1019649
05:00+11с3457100 0.0 1018778
08:00+12с235294 0.0 1018887
11:00+11сз3258100 0.0 1018740
14:00+11ююв3364100 0.2 1017753
17:00+10всв3571100 0.8 1015855
20:00+11св6774100 1.1 1014847
17 апреля, сб
сб1723:00+11св5681100 0.6 1013577
02:00+11св7883100 2.1 1011896
05:00+12св6779100 1.8 1009810
08:00+11всв4590100 3.5 1008440
11:00+12ссв4590100 3.7 1008537
14:00+11ссз8990100 10.3 1006652
17:00+11с7886100 9.4 1008758
20:00+11сз7883100 9.9 1008847
18 апреля, вс
вс1823:00+10з458391 0.2 1010498
02:00+10з3382100 0.3 1010335
05:00+9зюз4488100 1.3 1010309
08:00+9ююз1187100 3.7 1011192
11:00+11вюв348088 0.0 1012440
14:00+12в5581100 0.6 1011456
17:00+12всв4582100 1.9 1011521
20:00+12в2384100 4.4 1011343